Lapse_Rate
5.7 5.7 5.7 5.7 5.7 5.7 5.7 5.8 5.8 5.8 5.9 5.9 5.9 6.0 6.0 5.9 5.8 5.7 5.7 5.9 6.0 6.0 6.2 6.2 6.3 6.1 5.8 6.2 6.2 6.5 6.4 6.6 6.3 6.1 6.4 6.4 6.8 6.3 6.2 6.1 6.0 5.8 5.6 5.2 5.6
5.6 5.7 5.7 5.7 5.7 5.8 5.8 5.9 5.9 5.9 5.9 6.0 6.0 6.0 6.0 6.1 6.1 6.1 6.0 5.8 5.8 5.9 6.1 6.2 6.1 5.8 6.1 6.5 6.7 6.6 7.5 7.1 6.8 6.9 6.6 6.5 6.6 6.5 6.5 6.3 6.0 5.7 5.6 5.6 5.5
5.6 5.7 5.7 5.8 5.8 5.9 5.9 5.9 6.0 6.0 6.0 6.0 6.0 6.0 6.0 6.0 6.0 5.7 6.4 6.1 5.8 5.8 5.9 6.1 5.8 6.0 6.4 6.8 7.0 6.9 7.0 6.5 6.5 6.8 6.9 6.6 6.5 6.7 6.0 6.4 6.3 6.1 5.3 5.6 5.1
5.6 5.7 5.8 5.8 5.9 5.9 6.0 6.0 6.0 6.0 6.0 6.1 6.1 6.0 5.9 5.7 5.7 6.1 6.3 6.3 6.0 5.8 5.8 6.0 5.8 6.1 6.5 7.0 6.9 6.4 6.7 6.4 6.3 6.2 6.2 6.3 6.5 6.6 6.4 6.2 6.3 5.9 5.4 5.3 5.2
5.7 5.8 5.9 5.9 6.0 6.0 6.0 6.1 6.1 6.1 6.1 6.1 6.1 6.0 6.0 5.7 5.2 6.0 6.2 6.2 6.1 6.0 5.9 5.9 6.0 6.3 6.8 6.9 6.9 7.2 6.9 6.4 6.2 6.2 5.9 6.2 6.3 6.6 6.1 6.3 6.1 5.8 5.3 5.2 5.5
5.8 5.9 6.0 6.0 6.1 6.1 6.1 6.2 6.2 6.2 6.1 6.2 6.2 6.1 6.0 5.3 5.8 5.8 6.0 6.1 6.0 6.0 6.0 6.0 6.2 6.4 6.6 6.8 6.8 6.8 6.8 6.4 6.3 6.3 6.2 6.2 6.2 6.3 6.2 6.0 5.9 5.8 5.6 5.4 5.4
5.8 5.9 5.9 6.0 6.1 6.1 6.2 6.2 6.2 6.2 6.2 6.2 6.2 6.2 6.0 5.1 5.9 5.8 5.9 5.9 5.9 6.0 5.9 6.1 6.2 6.2 6.7 6.9 6.6 6.7 6.8 6.4 6.4 6.3 6.5 6.3 6.3 6.4 6.4 6.1 5.9 5.9 5.8 5.8 5.6
5.7 5.8 6.0 6.0 6.1 6.1 6.1 6.1 6.2 6.2 6.2 6.2 6.2 6.1 5.6 6.2 5.9 5.9 5.8 5.8 5.9 5.8 5.7 6.1 6.0 6.3 6.7 6.9 6.8 7.0 6.6 5.9 6.4 6.2 6.4 6.3 5.9 6.3 6.6 6.1 5.9 6.1 6.0 5.9 5.6
5.5 5.6 5.8 5.9 6.1 6.1 6.1 6.2 6.1 6.1 6.1 6.1 6.1 6.0 5.5 6.1 5.9 5.8 5.8 5.7 5.8 5.8 5.9 6.2 6.3 6.7 7.0 7.1 8.5 7.8 7.2 6.5 7.0 6.6 6.6 6.5 6.8 6.3 6.4 6.4 6.1 6.0 5.9 5.8 5.8
5.4 5.5 5.6 5.7 5.8 5.9 6.1 6.1 6.1 6.0 6.1 6.1 6.0 6.0 6.1 6.1 5.7 5.6 5.9 5.3 5.6 5.4 5.8 6.1 6.3 7.0 7.3 7.7 8.7 8.2 8.0 7.7 7.1 6.9 6.8 7.1 7.4 6.8 6.3 6.1 6.3 6.3 6.2 5.9 5.9
5.3 5.4 5.4 5.6 5.6 5.7 5.8 5.8 5.9 5.7 6.0 6.1 5.6 5.8 5.6 5.6 5.5 5.5 5.9 5.9 5.5 5.6 5.9 6.0 6.6 7.4 8.0 8.1 9.1 8.4 8.0 7.8 7.7 7.1 7.5 7.6 7.7 7.6 6.7 6.1 6.0 6.2 6.3 6.0 5.9
5.3 5.3 5.3 5.5 5.5 5.6 5.6 5.5 5.8 5.8 5.9 5.9 6.0 5.6 5.7 5.6 5.5 5.4 5.7 5.6 5.8 6.1 6.3 6.6 6.8 7.6 8.1 8.8 8.5 8.2 8.7 8.2 7.8 7.5 7.7 8.1 7.8 7.9 7.0 6.6 6.4 6.4 6.4 6.2 6.2
5.3 5.0 5.0 5.1 5.2 5.2 5.2 5.3 5.4 5.4 5.8 6.1 6.0 5.8 5.9 5.8 6.1 6.0 5.6 5.9 6.2 6.4 6.8 7.1 7.5 7.3 7.8 8.0 7.9 8.2 9.3 9.0 9.3 7.6 7.8 8.0 8.0 8.1 7.6 6.8 6.7 6.6 6.4 6.4 6.3
5.2 5.0 4.8 4.8 4.9 4.9 4.9 5.1 5.1 5.3 5.2 6.2 6.0 6.0 5.7 5.8 6.0 6.5 6.0 6.3 6.6 6.8 7.1 7.1 7.4 7.3 7.7 7.8 8.2 8.6 8.8 9.0 8.3 8.1 9.2 8.1 9.2 7.4 8.2 7.3 6.9 6.9 6.8 6.7 6.7
5.3 5.1 4.9 4.7 4.8 4.9 4.9 5.0 5.0 5.3 7.3 5.9 5.8 5.7 5.9 6.0 6.7 6.5 6.4 6.4 6.9 7.1 7.2 7.5 7.4 7.4 7.4 7.9 8.2 8.8 9.5 9.4 9.4 8.5 9.1 9.5 9.0 8.5 8.4 8.3 7.4 7.2 7.3 7.1 7.2
5.3 5.2 5.0 4.9 5.0 5.1 5.0 5.0 5.0 5.2 7.5 6.7 6.2 6.0 6.3 6.3 6.8 6.8 6.5 6.7 6.9 7.2 7.3 7.5 7.5 7.3 7.6 7.8 8.0 8.4 9.1 9.2 9.2 9.4 9.6 9.5 8.7 9.0 8.1 8.9 8.5 8.6 7.7 7.7 6.8
5.4 5.4 5.2 5.0 4.8 5.1 5.0 5.0 5.2 6.5 6.9 7.2 7.0 6.6 6.6 6.8 7.2 6.9 6.9 6.9 7.2 7.2 7.5 7.5 7.3 7.4 7.5 7.9 8.2 8.3 8.7 9.5 9.6 9.7 9.8 9.0 8.6 9.1 8.7 8.4 8.6 9.1 8.7 7.9 7.8
5.5 5.3 5.2 5.1 5.1 5.1 5.2 4.7 5.9 7.2 7.7 6.6 7.1 7.4 7.4 7.5 7.6 7.3 7.2 7.3 7.4 7.7 8.5 8.5 8.4 7.7 7.6 7.9 8.6 8.4 9.1 9.7 9.3 9.7 9.9 9.3 9.5 9.4 8.9 9.0 8.7 8.6 8.5 8.1 7.8
5.5 5.5 5.3 5.2 5.3 5.3 5.2 5.5 6.8 7.0 6.9 7.0 7.3 7.5 7.9 8.2 8.6 8.0 7.9 7.9 8.1 7.8 8.2 9.6 9.6 9.4 7.8 7.9 8.3 9.3 8.8 9.5 9.7 9.0 9.3 8.0 9.1 9.5 8.8 8.6 8.6 9.2 8.5 8.1 8.1
5.5 5.5 5.3 5.4 5.4 5.3 4.9 5.9 6.8 6.3 6.2 6.5 7.2 7.9 8.4 9.3 9.2 9.1 9.2 8.4 8.7 8.6 8.2 8.7 9.0 9.6 8.9 8.5 8.3 9.0 9.6 9.4 9.6 9.6 9.3 8.0 9.2 9.7 9.4 8.8 9.3 9.2 8.8 8.3 8.0
5.5 4.8 5.5 5.3 5.3 5.0 5.5 6.3 6.4 6.1 5.9 6.3 7.0 7.6 7.7 8.9 9.5 9.5 9.5 9.5 9.4 9.5 8.6 8.4 9.0 9.4 9.6 8.8 9.2 8.7 8.9 9.5 9.5 9.7 9.9 9.7 9.8 9.5 8.8 9.2 9.2 9.0 8.4 8.2 7.8
5.4 4.9 5.4 5.2 4.9 5.4 6.0 6.3 5.8 6.0 5.7 6.0 6.3 6.7 7.3 8.0 8.3 8.8 9.5 9.5 9.6 9.3 9.6 8.8 9.3 9.4 9.6 9.6 9.1 9.6 9.6 9.6 9.6 9.7 9.6 9.7 9.8 9.7 9.5 9.4 9.3 7.9 7.9 7.9 7.6
5.1 4.6 4.9 5.2 5.5 6.1 6.0 5.5 5.4 5.7 5.9 6.1 6.4 6.6 7.0 7.1 7.4 7.9 9.4 9.5 9.0 9.3 9.2 9.4 8.8 9.6 9.6 9.5 9.6 9.6 9.6 9.6 9.6 9.6 9.8 9.7 9.7 9.4 9.3 9.1 9.0 7.8 7.7 7.7 8.0
5.0 5.3 5.0 4.7 5.1 5.3 5.9 5.7 5.9 5.4 5.6 5.9 6.1 6.4 6.7 6.7 7.3 7.7 8.4 9.4 8.4 8.4 8.5 8.4 9.1 9.5 9.6 9.6 9.7 9.6 9.3 9.6 9.5 9.8 9.7 9.6 9.3 9.1 9.0 9.0 9.1 9.1 7.4 7.4 8.0
4.2 5.0 4.8 5.7 5.5 5.5 5.5 5.6 5.8 6.2 5.6 5.8 6.0 6.3 6.7 6.9 7.2 7.6 8.0 8.8 8.4 8.6 8.3 8.5 8.7 9.5 9.4 9.5 9.1 9.6 9.6 9.6 9.6 9.6 9.7 9.5 9.7 9.6 9.4 8.7 9.1 8.9 7.4 7.2 7.9
4.5 4.3 4.5 4.8 5.1 5.1 5.5 5.6 5.8 6.2 6.3 6.2 6.3 6.6 6.4 6.7 7.0 7.9 9.2 8.4 9.1 8.6 8.4 8.9 9.0 9.2 9.5 9.5 9.5 9.4 9.6 9.6 9.6 9.6 9.6 9.7 8.7 9.2 9.6 9.4 9.4 8.9 7.7 7.1 6.9
4.3 4.4 4.7 4.9 5.4 5.7 6.1 6.0 6.0 5.9 6.0 5.9 6.0 6.1 6.6 6.7 6.2 6.2 6.6 6.8 7.4 7.9 7.9 8.2 9.2 9.4 9.4 9.5 9.3 9.5 9.6 9.6 9.6 9.6 9.6 9.5 9.6 9.5 9.5 8.8 9.0 8.2 7.6 7.1 6.7
Wind_Speed
14 15 14 14 15 15 15 14 14 14 14 14 14 14 15 15 18 9 11 2 6 16 8 12 12 11 11 13 4 5 3 3 11 8 8 8 9 9 6 11 6 2 16 19 17
16 16 16 16 16 16 16 16 15 14 14 13 13 13 14 14 13 15 6 9 8 12 13 12 13 11 12 4 3 8 6 6 5 4 8 6 3 8 9 10 11 7 20 20 17
17 17 17 17 17 17 17 17 17 15 14 13 13 13 13 13 11 7 13 13 10 14 16 12 9 10 9 8 2 3 5 1 2 8 7 10 5 5 5 10 8 16 19 18 17
18 18 18 18 18 18 18 19 19 17 15 13 12 12 11 11 2 8 11 12 11 14 12 11 12 12 10 5 4 5 3 1 7 6 1 7 4 7 5 8 5 16 19 17 16
18 20 20 20 21 21 22 20 18 16 14 13 12 10 8 8 5 10 14 11 14 14 13 13 13 10 12 2 6 6 6 2 6 6 6 1 7 3 7 5 7 15 18 17 15
20 20 21 21 22 24 23 22 19 16 14 12 11 7 8 12 7 12 14 14 14 15 13 12 11 7 7 5 2 2 5 4 4 6 5 7 7 9 13 12 11 15 17 16 15
20 21 21 22 24 25 24 23 19 14 12 11 10 7 11 5 2 10 12 14 13 14 13 11 7 8 4 7 3 7 9 9 6 5 4 10 11 10 8 9 12 14 15 15 12
21 21 23 26 24 24 24 22 15 8 9 10 9 10 6 5 6 8 11 13 9 10 11 7 8 13 9 1 8 11 10 7 14 8 4 12 5 14 7 9 14 15 13 13 15
22 23 26 26 25 24 22 19 10 2 8 10 8 9 7 5 11 11 11 12 12 10 7 4 11 15 12 13 13 12 3 7 8 9 4 7 9 12 13 13 12 14 15 13 13
22 25 26 27 26 24 24 10 3 5 7 9 9 8 9 12 13 13 12 11 14 12 11 13 10 14 13 14 5 5 11 9 12 8 5 6 4 14 11 12 7 13 14 14 16
25 25 26 27 27 25 17 4 5 7 12 15 2 8 6 9 10 12 12 14 15 14 16 16 14 16 19 16 13 6 8 5 12 7 3 7 7 11 15 14 13 16 15 15 15
25 25 27 29 28 26 9 7 7 7 10 15 18 13 4 12 11 14 15 14 13 15 18 13 18 18 15 11 13 7 11 14 13 3 6 8 9 10 15 16 19 16 15 15 17
24 26 27 32 31 9 8 7 4 9 8 14 18 19 18 11 14 17 19 18 15 17 18 19 10 17 15 10 12 15 15 7 3 6 11 12 14 6 16 14 13 18 17 18 18
24 24 25 35 7 8 5 4 6 6 6 10 11 10 19 15 17 13 19 18 11 17 18 14 18 8 14 14 17 16 14 9 7 7 8 4 10 12 16 16 16 15 16 18 17
25 24 24 11 13 6 6 6 8 6 6 6 10 8 13 20 2 19 17 19 17 14 11 15 15 16 16 17 18 17 12 12 10 12 12 15 9 13 14 15 18 18 19 19 18
28 22 23 5 8 10 8 6 6 7 6 8 8 11 17 21 12 17 15 20 14 15 15 17 7 12 17 17 13 17 16 10 12 13 14 13 12 9 8 11 13 17 18 18 22
32 24 10 11 4 6 7 7 7 9 5 6 8 15 17 18 18 11 19 19 16 13 15 15 20 12 14 17 18 16 17 12 13 12 13 7 2 6 10 6 3 8 12 16 17
35 28 7 8 6 6 7 8 10 3 7 5 5 7 16 18 19 16 18 18 20 18 13 12 15 21 16 17 16 15 21 14 18 10 9 13 8 6 13 6 5 3 5 11 17
38 6 9 4 6 5 7 10 8 8 5 4 7 12 15 18 12 16 19 19 19 18 18 10 11 19 18 16 19 15 18 23 23 7 9 11 10 11 8 9 9 8 3 10 14
7 6 3 1 6 7 8 16 11 3 4 9 13 7 14 18 17 17 19 16 17 19 15 16 13 10 15 17 20 21 13 18 16 20 12 13 23 2 11 12 10 5 7 7 9
6 5 7 6 5 7 10 12 9 8 7 10 14 12 11 16 17 19 16 16 13 17 14 16 12 12 16 16 16 12 14 14 20 12 11 11 9 14 16 12 9 9 8 12 11
5 4 6 5 8 9 11 9 3 9 9 13 8 13 12 11 10 12 17 16 10 13 13 17 10 13 19 16 19 19 18 15 10 13 10 10 6 9 16 14 10 15 9 7 11
5 7 6 6 6 8 10 8 6 11 10 13 14 13 13 12 9 16 17 2 3 6 3 11 13 14 18 17 14 15 15 19 19 15 14 9 10 13 8 10 15 13 10 9 9
5 4 6 7 10 10 13 8 11 8 11 7 10 13 11 12 14 11 12 5 1 8 11 10 16 16 14 15 17 22 22 21 18 11 13 12 12 7 8 8 10 10 11 10 10
4 2 6 5 1 7 9 12 9 12 11 7 9 12 12 14 16 19 19 17 10 2 10 12 18 17 22 8 20 17 19 23 22 17 13 10 11 12 16 14 15 12 10 10 10
5 4 4 11 11 10 11 13 15 14 12 11 13 13 9 11 13 15 12 19 11 9 9 15 16 19 23 24 15 18 18 20 18 14 17 13 12 7 7 11 14 18 15 11 12
4 7 5 7 10 11 11 12 9 7 9 11 15 14 12 10 10 15 17 15 11 11 7 14 13 16 21 21 17 17 17 16 13 13 14 15 9 9 11 6 8 11 14 13 11
Wind_Direction
356 352 350 347 341 337 332 329 327 326 324 322 322 322 314 311 298 241 244 89 170 162 212 204 209 217 234 247 249 261 266 155 134 189 185 135 130 92 88 129 119 3 135 124 143
354 351 350 346 341 337 332 328 327 324 320 317 317 314 311 316 277 253 164 136 143 180 211 194 204 210 232 241 198 268 329 112 55 95 141 133 135 138 149 144 117 105 108 133 147
353 349 347 345 340 334 329 324 321 318 315 313 309 307 307 305 268 215 118 137 180 197 239 218 236 226 244 243 141 294 33 86 105 22 63 133 195 164 187 113 174 133 141 151 155
350 349 345 343 339 332 325 319 315 311 307 303 300 300 302 262 307 79 126 147 180 211 238 226 234 224 242 236 147 235 96 87 86 95 132 131 238 156 90 44 55 126 149 158 165
346 344 343 341 335 327 321 316 310 303 297 292 288 294 277 220 246 117 144 162 188 212 224 216 228 234 269 254 209 229 123 179 150 154 100 148 163 90 146 306 109 135 153 165 178
345 342 341 335 330 325 323 318 308 296 285 276 270 277 242 247 89 128 165 177 199 212 220 226 236 251 300 267 235 286 111 135 151 204 203 178 193 189 166 194 129 149 163 169 179
345 339 335 328 325 324 323 318 307 282 267 254 246 244 257 349 130 156 178 194 199 213 228 226 271 241 228 222 139 202 175 169 168 144 172 210 186 194 125 174 152 166 176 169 171
342 338 331 325 325 325 325 324 315 262 233 227 222 239 279 109 182 181 187 197 202 221 262 219 230 264 259 292 202 232 164 327 138 155 142 238 239 120 140 218 169 170 177 168 165
341 335 328 326 326 325 323 320 314 129 189 193 213 232 225 128 197 188 196 198 194 209 215 254 243 240 213 246 219 200 327 159 172 167 142 212 184 143 169 196 191 175 169 175 175
340 330 328 326 325 324 316 284 322 179 201 213 270 248 212 208 187 169 195 216 193 193 206 220 226 230 232 224 256 320 163 227 125 221 192 210 256 150 190 177 241 188 174 177 177
334 331 327 324 322 321 316 212 213 197 212 247 255 242 140 132 139 184 180 188 190 194 211 203 218 223 228 229 268 267 191 74 332 116 222 235 252 175 168 189 195 214 177 188 192
331 330 327 323 319 316 284 273 41 345 291 253 243 242 208 168 185 188 182 197 195 205 212 183 230 239 241 242 244 247 244 173 180 192 238 256 237 199 168 193 182 219 179 205 208
329 328 327 320 317 291 297 316 341 326 262 265 219 218 209 208 228 186 192 210 197 216 208 229 226 227 243 223 243 235 251 185 182 192 240 255 246 277 173 186 205 186 198 201 207
328 327 329 323 299 335 273 74 293 320 272 170 193 226 202 199 228 211 189 211 219 230 229 230 251 215 242 229 234 242 215 264 211 249 280 222 276 190 201 171 189 203 205 201 203
324 324 324 321 314 278 14 300 311 256 272 142 125 114 181 193 137 198 180 212 227 219 227 228 229 215 230 235 234 249 259 228 205 249 274 259 258 140 204 177 186 203 200 199 219
319 322 324 231 218 274 301 286 253 235 247 145 146 187 183 207 192 154 186 220 227 248 224 260 237 237 237 234 240 246 250 256 247 241 244 229 208 139 212 189 178 186 201 206 195
313 314 298 301 303 335 296 243 229 245 95 170 197 172 199 193 212 177 190 199 215 220 227 213 241 214 249 221 219 223 225 225 223 222 236 81 98 236 145 158 188 190 185 197 207
312 310 204 253 298 274 248 227 249 320 271 93 286 202 206 188 211 194 194 209 216 230 259 209 208 220 208 237 209 218 220 228 214 225 239 163 208 156 169 124 161 233 225 188 193
311 203 226 137 223 251 235 224 237 268 20 307 249 243 219 221 210 200 211 214 217 215 248 270 231 188 211 206 239 198 229 242 258 241 217 231 307 153 165 184 194 176 194 180 186
309 268 133 95 190 215 233 250 262 300 320 265 262 246 250 204 208 236 208 227 232 218 220 256 265 229 180 215 217 251 232 232 247 258 244 173 203 4 158 200 178 146 171 146 164
261 251 113 161 210 224 236 234 269 171 261 264 264 271 261 287 211 216 232 229 218 234 215 235 252 253 201 204 220 210 244 234 255 249 267 261 264 166 172 193 171 158 135 135 145
282 260 130 194 233 225 252 301 13 284 200 258 261 290 289 283 274 271 254 226 205 228 219 215 246 240 209 202 227 228 217 238 240 228 278 306 307 5 159 165 181 141 135 118 132
286 296 150 233 258 239 218 272 246 258 246 255 255 251 261 268 252 265 257 191 71 233 243 242 230 242 244 197 221 240 243 224 227 237 245 248 248 146 158 222 160 161 133 143 134
280 272 174 210 265 283 298 263 251 185 283 290 284 283 270 254 256 272 267 261 94 256 15 313 261 235 234 213 202 207 233 249 248 236 243 238 131 180 170 185 171 164 152 147 137
254 358 4 277 173 301 301 283 290 259 192 261 261 249 260 256 246 240 243 265 233 220 254 250 257 258 259 239 263 252 202 224 231 254 259 360 256 193 168 184 192 167 162 160 155
307 340 357 285 280 270 262 258 260 257 265 266 241 259 312 251 270 287 252 244 254 258 252 239 245 254 257 268 215 262 203 211 218 244 263 255 201 261 91 167 197 165 168 186 177
27 272 267 289 267 258 260 271 262 314 296 276 292 294 282 270 330 311 312 297 281 278 259 290 264 237 246 250 240 235 245 209 200 222 247 256 247 291 151 192 242 180 159 193 181